Temp
12 12 12 12 12 12 12 12 12 11 11 11 11 11 11 11 11 10 10 10 10 10 11 11 10 10 10 10 10 10 10 10 10 11 11 11 11 11 11 11 11 11
12 12 12 12 12 12 12 12 12 12 11 11 11 11 11 11 10 10 10 10 10 10 10 11 11 10 10 10 11 11 10 10 10 10 11 11 11 11 11 11 11 11
12 12 12 12 12 12 12 12 12 12 11 11 11 11 11 11 11 10 10 10 10 10 10 10 11 11 10 11 11 11 11 10 10 11 11 11 11 11 11 11 11 11
12 12 12 12 12 12 12 12 12 12 12 11 11 11 11 11 11 11 10 10 10 10 10 10 11 11 11 11 11 11 11 11 11 11 11 11 11 11 11 11 11 11
12 12 12 12 12 12 12 12 12 12 12 11 11 11 11 11 11 11 11 11 10 10 10 10 11 11 11 11 11 11 11 11 11 11 11 11 11 11 11 11 11 11
13 12 12 12 12 12 12 12 12 12 12 12 11 11 11 11 11 11 11 11 11 11 10 10 11 11 11 11 11 11 11 11 11 11 11 11 11 11 11 11 11 11
13 13 13 12 12 12 12 12 12 12 12 12 11 11 11 11 11 11 11 11 11 11 11 11 11 11 11 11 11 11 11 11 11 11 12 11 11 11 11 11 11 11
13 13 13 12 12 12 12 12 12 12 12 12 12 12 11 11 11 12 12 12 11 11 11 11 11 11 11 11 11 11 11 11 11 11 12 12 11 11 11 11 11 12
13 13 13 13 13 13 13 13 12 12 12 12 12 12 12 12 12 12 12 12 12 12 12 12 11 11 11 11 11 11 11 11 11 11 11 11 11 12 12 12 12 12
13 13 13 13 13 13 13 13 13 12 12 12 12 12 12 12 12 12 12 12 12 12 12 12 11 11 11 11 11 11 11 11 11 11 11 11 11 11 11 12 12 12
13 13 13 13 13 13 13 13 13 13 13 13 12 12 12 12 12 12 12 12 12 12 12 12 11 11 11 11 11 11 11 11 11 11 11 11 11 11 11 11 12 12
13 13 13 13 13 13 13 13 13 13 13 13 13 13 12 12 12 12 12 12 12 12 12 12 12 11 11 11 11 11 11 11 11 11 11 11 11 11 11 11 11 12
13 13 13 13 13 13 13 13 13 13 13 13 13 13 13 13 12 12 12 12 12 12 12 12 12 12 12 11 11 11 11 11 11 11 11 11 11 11 11 11 11 11
13 13 13 13 13 13 13 13 13 13 13 13 13 13 13 13 13 13 12 12 12 12 12 12 12 12 12 12 12 12 12 12 12 11 11 11 11 11 11 11 11 11
14 14 13 13 13 13 13 13 13 13 13 13 13 13 13 13 13 13 13 12 12 12 12 12 12 12 12 12 12 12 12 12 12 12 12 12 12 12 11 11 11 11
14 14 14 14 14 14 13 13 13 13 13 13 13 13 13 13 13 13 13 13 13 12 12 12 12 12 12 12 12 12 12 12 12 12 12 12 12 12 12 12 12 12
14 14 14 14 14 14 14 14 14 14 14 14 14 14 14 13 13 13 13 13 13 13 13 13 13 13 13 13 12 12 12 12 12 12 12 12 12 12 12 12 12 12
14 14 14 14 14 14 14 14 14 14 14 14 14 14 14 14 14 14 14 13 13 13 13 13 13 13 13 13 13 13 13 13 13 13 12 12 12 12 12 12 12 12
14 14 14 14 14 14 14 14 14 14 14 14 14 14 14 14 14 14 14 14 14 14 14 14 14 13 13 13 13 13 13 13 13 13 13 13 13 12 12 12 12 12
14 14 14 14 14 14 14 14 15 15 14 14 14 14 14 14 14 14 14 14 14 14 14 14 14 14 14 13 13 13 13 13 13 13 13 13 13 13 13 12 12 12
15 15 14 14 14 14 14 15 15 15 15 15 15 15 15 15 14 14 14 14 14 14 14 14 14 14 14 14 14 14 13 13 13 13 13 13 13 13 13 13 13 13
15 15 15 15 14 14 15 15 15 15 15 15 15 15 15 15 15 15 15 15 15 14 14 14 14 14 14 14 14 14 13 13 13 13 13 13 13 13 13 13 13 13
15 15 15 15 15 15 15 15 15 15 15 15 15 15 15 15 15 15 15 15 15 15 15 15 15 14 14 14 14 14 14 14 14 14 14 13 13 13 13 13 13 13
15 15 15 15 15 15 15 15 15 15 15 15 15 15 15 15 15 15 15 15 15 15 15 15 15 15 14 14 14 14 14 14 14 14 14 14 14 13 13 13 13 13
15 15 15 15 15 15 15 15 15 15 15 15 15 15 15 15 15 15 15 15 15 15 15 15 15 15 15 14 14 14 14 14 14 14 14 14 14 14 13 13 13 13
15 15 15 15 15 15 15 15 15 15 16 16 16 15 15 15 15 15 15 15 15 15 15 15 15 15 15 15 14 14 14 14 14 14 14 14 14 14 13 13 13 13
Height
3201 3203 3205 3207 3209 3211 3213 3214 3216 3218 3220 3221 3223 3225 3226 3228 3229 3230 3231 3232 3233 3235 3236 3237 3238 3239 3240 3240 3241 3242 3243 3244 3245 3246 3247 3247 3248 3248 3249 3249 3249 3249
3199 3201 3203 3205 3207 3209 3211 3213 3215 3217 3219 3220 3222 3223 3224 3226 3227 3228 3229 3230 3232 3233 3234 3236 3237 3238 3239 3240 3241 3242 3242 3243 3244 3245 3246 3247 3248 3248 3249 3249 3249 3250
3197 3200 3202 3204 3206 3208 3210 3212 3213 3215 3217 3218 3220 3222 3223 3224 3225 3226 3227 3228 3230 3231 3232 3234 3235 3236 3237 3238 3240 3241 3242 3243 3243 3244 3245 3246 3247 3248 3248 3249 3249 3250
3195 3198 3200 3202 3205 3207 3208 3210 3212 3213 3215 3217 3218 3220 3221 3222 3223 3224 3225 3226 3228 3229 3230 3232 3233 3235 3236 3237 3238 3239 3241 3242 3242 3243 3244 3245 3246 3247 3248 3248 3249 3249
3194 3196 3198 3201 3203 3205 3206 3208 3210 3212 3214 3215 3217 3218 3220 3221 3222 3223 3224 3225 3226 3228 3229 3230 3231 3233 3234 3235 3237 3238 3239 3240 3241 3242 3243 3245 3245 3246 3247 3248 3248 3249
3192 3194 3196 3199 3201 3203 3204 3206 3209 3210 3212 3214 3215 3216 3218 3219 3220 3221 3222 3223 3225 3226 3227 3228 3229 3231 3232 3234 3235 3236 3238 3239 3240 3241 3242 3243 3244 3245 3246 3247 3247 3248
3190 3192 3194 3197 3199 3201 3202 3205 3207 3208 3210 3211 3213 3214 3216 3217 3219 3220 3221 3222 3223 3224 3225 3226 3227 3229 3230 3232 3233 3235 3236 3237 3238 3239 3241 3242 3243 3244 3245 3246 3247 3247
3188 3190 3192 3194 3196 3198 3200 3202 3204 3206 3208 3209 3211 3212 3214 3215 3217 3219 3220 3220 3221 3222 3223 3224 3226 3227 3228 3229 3231 3233 3234 3235 3236 3237 3239 3240 3241 3243 3244 3245 3245 3246
3186 3188 3190 3192 3194 3196 3198 3200 3202 3204 3205 3207 3209 3211 3212 3214 3215 3217 3218 3219 3220 3221 3222 3223 3224 3225 3226 3228 3229 3231 3232 3233 3234 3235 3237 3238 3239 3241 3242 3243 3243 3245
3183 3185 3187 3189 3191 3194 3196 3198 3200 3202 3203 3205 3207 3209 3210 3212 3213 3214 3216 3217 3218 3219 3220 3221 3222 3224 3225 3226 3228 3229 3230 3231 3232 3234 3235 3236 3237 3239 3240 3240 3241 3242
3180 3183 3185 3187 3189 3192 3194 3197 3198 3200 3202 3203 3205 3207 3208 3210 3211 3212 3214 3215 3217 3218 3219 3221 3222 3223 3224 3225 3226 3227 3229 3230 3231 3232 3233 3234 3236 3237 3238 3238 3239 3240
3178 3180 3182 3185 3187 3189 3192 3194 3196 3198 3200 3201 3203 3205 3206 3208 3209 3210 3212 3213 3215 3217 3218 3219 3220 3221 3222 3224 3225 3226 3227 3228 3229 3231 3232 3233 3234 3235 3236 3236 3237 3238
3175 3178 3180 3183 3185 3188 3190 3192 3194 3196 3198 3199 3201 3202 3204 3206 3207 3208 3210 3212 3214 3215 3216 3218 3219 3220 3221 3222 3223 3225 3226 3227 3228 3229 3230 3232 3233 3233 3234 3235 3235 3236
3174 3177 3179 3181 3184 3186 3188 3190 3192 3194 3195 3197 3199 3200 3202 3203 3205 3206 3208 3209 3211 3213 3214 3215 3216 3218 3219 3220 3222 3223 3225 3226 3227 3228 3229 3230 3231 3232 3232 3233 3234 3235
3172 3175 3177 3179 3181 3183 3185 3187 3189 3191 3193 3195 3196 3198 3200 3201 3202 3204 3205 3207 3208 3210 3211 3213 3214 3216 3217 3219 3220 3222 3223 3224 3225 3226 3227 3228 3229 3229 3230 3231 3232 3233
3170 3172 3174 3176 3178 3180 3182 3185 3187 3189 3190 3192 3194 3196 3197 3199 3200 3201 3202 3204 3206 3207 3208 3210 3211 3213 3215 3217 3218 3220 3221 3222 3223 3224 3225 3226 3226 3227 3228 3229 3230 3230
3168 3170 3172 3174 3176 3178 3180 3182 3184 3186 3188 3190 3191 3193 3194 3196 3197 3198 3200 3201 3203 3204 3206 3207 3209 3211 3213 3215 3216 3217 3218 3219 3220 3221 3222 3223 3224 3224 3225 3226 3227 3227
3166 3168 3170 3172 3174 3176 3178 3180 3182 3183 3185 3187 3188 3190 3192 3193 3195 3196 3197 3199 3200 3202 3203 3204 3207 3209 3211 3212 3214 3215 3216 3217 3217 3218 3219 3220 3221 3221 3222 3223 3224 3224
3164 3166 3168 3170 3172 3174 3176 3178 3179 3181 3182 3184 3186 3188 3189 3190 3192 3193 3195 3196 3198 3199 3200 3202 3204 3207 3208 3210 3211 3212 3213 3214 3214 3215 3216 3217 3218 3218 3219 3220 3220 3221
3162 3164 3166 3168 3170 3172 3173 3175 3176 3178 3180 3182 3183 3185 3186 3187 3189 3191 3192 3194 3195 3196 3198 3199 3201 3204 3206 3207 3209 3210 3210 3211 3211 3212 3212 3213 3214 3215 3216 3217 3217 3218
3160 3162 3164 3166 3167 3169 3170 3172 3173 3175 3177 3179 3180 3181 3183 3185 3187 3188 3189 3191 3193 3194 3195 3196 3198 3201 3203 3204 3206 3207 3207 3208 3208 3208 3209 3209 3210 3211 3212 3213 3214 3214
3157 3159 3161 3163 3165 3166 3167 3169 3171 3173 3175 3176 3177 3179 3180 3182 3183 3185 3186 3188 3190 3191 3192 3193 3196 3198 3199 3201 3203 3203 3204 3204 3205 3205 3205 3206 3207 3208 3209 3210 3211 3211
3154 3156 3158 3160 3161 3163 3164 3166 3168 3170 3172 3173 3174 3176 3177 3179 3180 3182 3184 3185 3186 3188 3189 3191 3193 3195 3196 3198 3199 3200 3200 3201 3201 3202 3202 3202 3203 3204 3205 3206 3207 3208
3151 3153 3155 3157 3158 3160 3161 3164 3166 3167 3169 3170 3171 3173 3175 3176 3178 3179 3181 3182 3183 3185 3186 3188 3189 3192 3193 3194 3196 3196 3196 3197 3198 3198 3199 3199 3200 3201 3202 3203 3204 3205
3149 3151 3153 3154 3155 3157 3159 3160 3162 3164 3166 3167 3168 3170 3172 3173 3175 3176 3177 3179 3180 3182 3183 3184 3186 3188 3190 3191 3192 3192 3193 3194 3195 3195 3195 3196 3197 3199 3200 3200 3201 3202
3146 3148 3150 3151 3153 3154 3156 3157 3158 3160 3162 3163 3164 3166 3168 3170 3171 3172 3174 3176 3177 3178 3180 3181 3183 3185 3186 3187 3188 3189 3190 3191 3191 3191 3192 3194 3195 3196 3197 3197 3198 3199
Wind_Speed
28 27 26 25 24 24 24 23 23 23 22 21 20 18 16 15 15 16 15 14 14 15 17 18 17 17 16 16 16 16 15 14 13 12 11 10 9 7 6 5 4 4
29 28 27 27 26 25 24 23 22 21 20 20 19 18 17 16 16 16 16 15 15 15 17 19 19 19 18 17 17 17 17 16 15 15 13 12 11 9 8 6 5 4
30 29 29 28 27 25 24 22 21 21 20 20 20 18 17 17 16 16 16 16 16 16 18 20 21 21 21 19 18 19 19 18 18 17 16 15 13 12 10 9 7 5
32 31 30 28 27 26 25 24 22 21 21 20 19 19 18 18 17 17 17 18 18 18 19 20 22 23 22 21 20 20 20 20 19 19 18 17 16 14 13 12 10 8
32 32 31 29 28 27 27 26 23 22 21 21 20 20 19 18 18 17 17 18 18 19 19 21 22 23 23 23 22 21 21 21 21 20 19 18 18 16 15 14 12 11
33 32 32 30 29 29 28 27 24 23 22 22 22 21 20 19 18 17 16 17 17 18 19 19 20 22 23 24 23 22 22 22 22 22 21 20 19 19 18 17 15 13
33 33 32 31 31 30 29 28 26 25 24 24 23 22 21 20 18 16 15 15 16 16 17 16 17 19 21 23 24 23 23 22 22 23 22 21 21 20 19 19 17 16
33 33 33 32 32 31 30 29 28 27 26 26 25 24 22 21 18 16 14 14 14 15 15 15 14 15 18 21 23 23 23 23 23 23 22 22 22 22 21 20 20 18
33 33 34 33 33 32 31 30 29 28 28 27 26 25 24 22 20 17 15 14 14 14 14 14 14 14 16 17 19 20 22 22 23 23 22 22 22 22 22 22 22 21
34 34 34 34 33 32 31 30 29 29 28 27 26 26 25 24 22 20 18 17 16 15 15 14 13 14 14 14 15 16 18 20 22 23 22 22 21 21 21 23 23 22
35 35 35 35 34 33 32 31 30 29 28 28 27 27 26 25 24 22 21 19 18 16 15 14 14 14 13 13 13 13 14 16 18 20 20 21 21 21 21 22 23 22
36 36 36 35 34 33 32 31 30 30 29 28 28 27 27 27 26 25 23 21 19 18 17 16 16 15 15 14 13 13 13 14 14 15 16 17 18 18 20 21 22 22
35 35 35 35 34 33 32 32 31 30 29 29 28 28 28 27 27 26 25 23 21 20 19 19 18 18 17 16 15 14 14 13 13 13 13 14 14 15 16 18 19 19
33 33 34 33 33 33 33 33 32 31 30 29 29 28 28 27 28 27 26 25 23 22 21 21 21 20 18 17 16 15 14 13 13 13 13 13 13 14 15 15 16 16
30 31 32 32 33 33 33 33 32 32 31 31 30 29 28 28 28 28 28 27 26 25 24 23 23 21 20 18 17 16 15 15 14 14 14 14 14 14 15 15 15 15
28 29 30 31 32 32 32 32 31 31 32 31 31 29 29 29 29 28 28 28 28 27 26 26 24 23 21 20 19 18 18 18 17 17 17 16 16 16 16 16 16 16
27 28 29 29 30 30 30 30 30 30 31 31 31 30 30 30 29 29 29 28 28 28 28 27 26 24 22 22 21 20 20 20 19 19 19 19 19 18 18 17 18 18
25 25 26 27 27 27 27 27 28 29 29 29 30 30 30 30 29 29 29 28 28 28 28 27 26 25 24 24 23 22 21 21 21 21 21 21 20 20 20 19 20 20
23 23 24 24 25 25 25 26 27 28 28 28 28 29 29 30 29 29 29 29 28 28 27 26 25 25 25 25 24 24 24 24 24 23 23 23 23 22 22 22 22 22
23 23 24 24 24 25 25 26 27 27 27 28 28 28 29 29 29 29 29 29 28 27 27 26 25 25 25 25 25 25 25 26 26 26 26 25 25 24 24 24 23 24
27 26 26 25 25 26 26 27 27 27 27 28 28 29 29 28 28 28 28 28 28 28 28 27 26 26 26 26 26 26 27 28 28 28 28 28 27 26 26 25 25 26
30 30 29 29 28 28 28 27 27 26 26 27 27 28 28 28 28 28 28 27 28 28 29 27 26 27 27 27 27 28 29 30 30 29 30 30 29 28 27 26 26 26
31 31 31 31 31 31 31 30 28 27 27 26 27 26 26 26 26 27 27 27 28 29 28 27 27 27 28 28 28 30 31 31 31 30 31 31 30 29 28 27 25 24
28 29 29 30 31 31 31 31 31 30 29 29 28 27 26 25 25 26 26 27 27 28 28 28 27 27 28 28 28 30 31 31 30 30 31 31 30 29 28 26 23 21
24 25 26 27 29 29 30 31 31 31 32 32 31 30 29 28 27 26 26 26 26 26 27 27 27 26 27 27 28 29 30 30 30 31 31 30 29 27 26 24 21 20
21 22 22 24 25 26 27 29 30 31 32 33 33 33 32 31 30 29 28 27 27 26 26 26 26 25 26 27 27 28 29 30 31 31 30 28 27 25 24 22 21 20
Wind_Direction
203 204 206 207 208 208 208 208 211 214 217 221 226 231 233 233 233 233 233 234 232 228 224 220 216 217 217 214 210 208 206 206 204 200 195 191 186 178 171 159 137 118
204 205 206 207 207 208 209 210 211 213 216 219 222 225 227 227 227 227 227 229 230 228 225 222 218 217 218 218 214 211 210 209 210 208 204 203 201 195 193 188 177 163
206 206 207 208 208 208 210 211 210 210 211 213 217 220 222 222 222 222 222 223 225 227 226 222 219 218 218 219 217 214 212 211 213 213 211 210 208 206 205 202 196 194
208 207 207 208 208 208 210 212 211 208 208 210 213 217 220 221 220 220 220 221 222 224 225 224 221 219 219 220 219 215 214 214 215 216 214 213 213 212 213 212 207 205
210 208 207 207 208 209 211 212 211 209 207 208 212 216 220 223 223 221 221 222 223 223 226 226 224 222 220 221 221 218 217 217 219 219 217 216 217 216 217 217 213 213
212 210 209 208 208 210 212 212 211 210 208 208 210 214 218 224 226 224 223 225 227 226 227 227 226 225 223 223 223 222 220 220 221 223 220 219 220 220 220 220 219 219
214 212 211 210 210 211 212 212 212 211 210 209 210 213 216 221 226 226 224 224 227 228 226 225 225 226 226 226 226 225 224 223 224 225 224 224 225 225 224 225 224 224
216 214 213 213 213 213 213 213 212 212 211 211 211 212 215 218 222 224 222 219 220 222 222 220 219 220 224 226 226 225 224 225 227 228 227 227 229 230 230 231 230 229
217 216 215 215 216 216 215 215 214 213 213 213 212 212 214 217 219 220 219 215 213 214 215 214 212 213 218 221 221 221 222 224 227 229 231 231 232 233 234 236 235 233
218 218 217 217 218 218 217 216 216 216 216 215 214 213 214 216 218 219 218 214 211 210 209 207 205 206 211 213 212 215 218 222 227 230 233 235 235 236 237 238 238 237
218 218 218 219 219 220 219 218 218 218 218 218 216 216 215 216 218 220 219 216 212 210 208 205 202 202 204 203 202 206 210 215 222 228 232 236 238 238 239 241 242 241
219 219 219 220 220 221 221 220 220 219 220 220 219 218 217 217 220 222 222 221 215 212 211 207 205 205 203 202 201 203 204 207 214 220 225 230 234 237 239 242 244 245
221 221 221 222 222 222 222 222 222 221 221 222 221 221 220 219 221 223 224 224 221 218 215 211 210 209 207 207 207 207 207 208 212 216 219 222 225 230 235 239 243 245
223 224 224 224 224 225 225 224 224 223 223 223 223 224 223 222 223 223 224 225 224 222 220 218 215 213 211 212 213 215 215 214 216 219 222 224 224 226 230 234 237 240
224 225 226 226 226 226 226 227 226 226 226 226 226 226 226 225 225 224 224 225 225 225 224 222 220 216 215 217 219 223 225 225 227 228 229 230 231 231 232 234 235 237
224 224 225 226 227 228 229 229 229 229 229 228 229 229 228 228 228 227 227 226 225 226 226 226 224 220 219 221 224 227 230 232 234 235 236 237 237 238 238 238 239 239
222 223 225 226 228 229 230 231 231 231 231 231 230 230 230 230 230 230 230 229 227 227 227 228 227 223 222 223 225 229 232 235 237 238 240 241 241 243 243 244 245 245
219 221 224 225 227 229 230 231 232 232 232 231 231 231 232 232 233 233 233 232 230 229 229 229 228 225 224 225 226 230 234 238 241 242 243 244 245 246 246 246 247 248
217 220 222 224 226 228 230 231 233 233 233 232 232 233 233 233 234 234 234 234 233 232 231 231 229 227 226 227 229 232 236 241 244 246 247 248 248 248 248 248 249 250
218 220 222 223 225 227 229 231 232 233 234 234 234 234 234 234 234 234 235 234 234 235 234 234 233 230 229 230 232 234 238 242 245 248 250 251 251 251 250 250 251 252
224 225 225 226 227 227 229 230 232 233 234 235 236 236 236 236 236 236 236 235 235 236 236 236 235 234 233 234 235 238 241 244 246 249 251 253 253 253 252 251 252 254
227 229 230 230 231 231 232 232 233 234 235 236 238 239 239 239 238 237 237 236 236 236 237 237 236 236 237 237 238 240 243 245 247 250 252 253 254 254 253 253 254 256
227 230 231 233 234 236 236 236 236 237 237 239 240 241 241 241 241 241 242 241 240 240 241 241 239 238 239 239 240 241 243 245 247 249 250 252 252 253 254 255 256 256
225 228 230 233 236 237 238 239 239 239 239 240 242 243 243 244 244 244 244 243 243 243 244 244 243 241 241 241 241 241 243 244 244 245 247 249 251 252 255 257 256 252
219 223 226 230 234 236 238 239 240 240 240 240 241 242 242 243 243 243 243 243 243 243 243 243 243 242 241 241 240 240 241 241 242 243 246 249 251 252 253 253 249 243
213 218 223 228 232 235 237 239 240 240 241 241 241 241 241 241 242 243 243 243 243 243 242 241 241 240 239 239 238 237 237 238 240 243 246 248 249 249 248 245 242 242